Regional Weather Roundup
Issued by NWS

Home | Current Version | Previous Version | Graphics & Text | Print | Product List | Glossary On
Versions: 1 2 3 4 5 6 7 8 9 10 11 12 13 14 15 16 17 18 19 20 21 22 23 24 25 26 27 28 29 30 31 32 33 34 35 36 37 38 39 40 41 42 43 44 45 46 47 48 49 50
000
ASUS45 KABQ 211501
RWRNM
NEW MEXICO REGIONAL WEATHER ROUNDUP
NATIONAL WEATHER SERVICE ALBUQUERQUE NM
800 AM MST WED FEB 21 2018

NOTE: "FAIR" MEANS FEW OR NO CLOUDS BELOW 12,000 FEET AGL WITH NO
       SIGNIFICANT WEATHER OR OBSTRUCTIONS TO VISION.

      THIS PRODUCT IS RELEASED AS TWO VERSIONS.  ONE VERSION NEAR
      THE TOP OF THE HOUR CONTAINING PRELIMINARY DATA FROM ALBUQUERQUE
      AND OTHER STATIONS.  A FINAL VERSION WITH ADDITIONAL DATA IS
      ISSUED ABOUT 10 MINUTES AFTER THE HOUR.

NMZ501-503-504-510>518-211600-
NORTHWEST PLATEAU/NORTHCENTRAL MOUNTAINS

CITY           SKY/WX    TMP DP  RH WIND       PRES   REMARKS
FARMINGTON     FAIR      18   8  65 E7        30.14R WCI   9
LOS ALAMOS     CLOUDY    23  13  65 CALM      30.13S
SANTA FE       CLOUDY    26  19  74 CALM      30.13R
TAOS           CLOUDY    21  12  68 CALM      30.15R
ANGEL FIRE     LGT SNOW  20  16  86 S8        30.09R WCI  10

$$
NMZ402-403-502-505>509-211600-
WESTCENTRAL MOUNTAINS/SOUTHWEST MOUNTAINS

CITY           SKY/WX    TMP DP  RH WIND       PRES   REMARKS
GALLUP         CLOUDY    22  14  71 CALM      30.08S
GRANTS         PTSUNNY   17  14  88 W6        30.12S WCI   8
SILVER CITY    FAIR      33  32  94 E5        30.10R WCI  29

$$
NMZ407-409-411-412-211600-
SOUTHERN DESERTS

CITY           SKY/WX    TMP DP  RH WIND       PRES   REMARKS
DEMING         CLOUDY    37  32  82 CALM      30.11R
LAS CRUCES     PTSUNNY   40  33  75 E3        30.12R
HOLLOMAN AFB   FAIR      41  37  83 CALM      30.13R
ALAMOGORDO     FAIR      41  36  81 CALM      30.11R
T OR C         NOT AVBL

$$
NMZ519>523-211600-
CENTRAL VALLEYS/CENTRAL HIGHLANDS

CITY           SKY/WX    TMP DP  RH WIND       PRES   REMARKS
ALBUQUERQUE    PTSUNNY   33  18  53 NE10      30.13R WCI  25
DOUBLE EAGLE   PTSUNNY   30  18  59 N10       30.12S WCI  21
MORIARTY ARPT  FAIR      22  17  81 S3        30.18R
CLINES CORNERS FAIR      16   5  62 E10       30.14S WCI   4
BELEN          FAIR      31  13  48 CALM      30.13R
SOCORRO        CLOUDY    32  18  55 N9        30.13R WCI  25

$$
NMZ524>526-539-540-211600-
SOUTHCENTRAL MOUNTAINS

CITY           SKY/WX    TMP DP  RH WIND       PRES   REMARKS
RUIDOSO        NOT AVBL

$$
NMZ527>531-211600-
NORTHEAST HIGHLANDS/NORTHEAST PLAINS

CITY           SKY/WX    TMP DP  RH WIND       PRES   REMARKS
LAS VEGAS      CLOUDY    14   7  73 E3        30.15R
RATON          FAIR      12   4  70 E6        30.18S WCI   3
CLAYTON        CLOUDY    12   0  58 N10       30.28R WCI  -1

$$
NMZ532>537-211600-
EASTCENTRAL PLAINS

CITY           SKY/WX    TMP DP  RH WIND       PRES   REMARKS
SANTA ROSA     CLOUDY    20   0  42 N8        30.26R WCI  10
TUCUMCARI      CLOUDY    20   0  41 E10       30.30R WCI   9
CANNON AFB     FAIR      20   1  43 NE18      30.28S WCI   5
CLOVIS AIRPORT NOT AVBL

$$
NMZ028-029-538-211600-
SOUTHEAST PLAINS

CITY           SKY/WX    TMP DP  RH WIND       PRES   REMARKS
ROSWELL        FAIR      28   8  43 NE13      30.29R WCI  17
ARTESIA        FAIR      28   7  40 NE14      30.30R WCI  17
CARLSBAD       FAIR      32  15  49 N10       30.29R WCI  24
HOBBS          CLOUDY    25   9  50 NE16G23   30.28R WCI  12


$$



USA.gov is the U.S. government's official web portal to all federal, state and local government web resources and services.